Weather History for KCOF - November, 2013

Change the Weather History Date:

Saturday, November 2, 2013

  Actual Average Record
Temperature  
Mean Temperature 76 °F -  
Max Temperature 84 °F 77 °F 86 °F (1996)
Min Temperature 68 °F 67 °F 48 °F (2014)
Cooling Degree Days 10    
Growing Degree Days 26 (Base 50)    
Moisture  
Dew Point 65 °F    
Average Humidity 77    
Maximum Humidity 94    
Minimum Humidity 54    
Precipitation  
Precipitation 0.00 in - - ()
Sea Level Pressure  
Sea Level Pressure 29.91 in    
Wind  
Wind Speed 11 mph (West)    
Max Wind Speed 22 mph    
Max Gust Speed 31 mph    
Visibility 10 miles    
Events      
Averages and records for this station are not official NWS values.
T = Trace of Precipitation, MM = Missing Value Source: NWS Daily Summary

Daily Weather History Graph

Daily Weather History Graph

Search for Another Location

Airport or City:

Trip Planner

Search our weather history database for the weather conditions in past years. The results will help you decide how hot, cold, wet, or windy it might be!

Date:

Astronomy

Nov. 02, 2013 Rise Set
Actual Time 7:34 AM EDT 6:36 PM EDT
Civil Twilight 7:10 AM EDT 7:01 PM EDT
Nautical Twilight 6:42 AM EDT 7:28 PM EDT
Astronomical Twilight 6:15 AM EDT 7:56 PM EDT
Moon 6:34 AM EDT (11/2) 6:05 PM EDT (11/2)
Length of Visible Light 11h 50m
Length of Day
11h 01m
Waning Crescent, 1% of the Moon is Illuminated
Nov 2
Waning Crescent
Nov 3
New
Nov 10
First Quarter
Nov 17
Full
Nov 25
Last Quarter

Hourly Weather History & Observations

Time (EDT) Temp. Heat Index Dew Point Humidity Pressure Visibility Wind Dir Wind Speed Gust Speed Precip Events Conditions
12:58 AM 74.8 °F - 67.3 °F 77% 29.94 in 10.0 mi SW 8.1 mph - N/A   Clear
1:58 AM 73.9 °F - 67.6 °F 81% 29.93 in 10.0 mi SW 8.1 mph - N/A   Clear
2:58 AM 72.9 °F - 68.5 °F 86% 29.90 in 10.0 mi SSW 6.9 mph - N/A   Clear
3:58 AM 72.7 °F - 69.6 °F 90% 29.88 in 10.0 mi SW 10.4 mph - N/A   Clear
4:58 AM 72.7 °F - 70.2 °F 92% 29.86 in 10.0 mi SSW 10.4 mph - N/A   Clear
5:58 AM 71.6 °F - 69.6 °F 93% 29.86 in 10.0 mi SSW 9.2 mph - N/A   Clear
6:58 AM 71.6 °F - 69.4 °F 93% 29.88 in 10.0 mi SW 10.4 mph - N/A   Clear
7:58 AM 71.1 °F - 69.3 °F 94% 29.90 in 10.0 mi SSW 8.1 mph - N/A   Clear
8:58 AM 72.9 °F - 69.4 °F 89% 29.88 in 10.0 mi SSW 10.4 mph - N/A   Clear
9:58 AM 75.7 °F - 68.5 °F 78% 29.91 in 10.0 mi SSW 11.5 mph - N/A   Clear
10:58 AM 80.1 °F 82.4 °F 67.3 °F 65% 29.91 in 10.0 mi SSW 15.0 mph - N/A   Clear
11:58 AM 83.1 °F 84.8 °F 64.8 °F 54% 29.91 in 10.0 mi SW 15.0 mph - N/A   Partly Cloudy
12:58 PM 82.6 °F 84.1 °F 64.4 °F 54% 29.91 in 10.0 mi West 16.1 mph - N/A   Mostly Cloudy
12:59 PM 82.4 °F 83.9 °F 64.4 °F 54% 29.90 in 10.0 mi WNW 20.7 mph 31.1 mph N/A   Mostly Cloudy
1:39 PM 69.8 °F - 62.6 °F 78% 29.90 in 10.0 mi NNW 21.9 mph - N/A   Mostly Cloudy
1:49 PM 69.8 °F - 62.6 °F 78% 29.89 in 10.0 mi NNW 19.6 mph 27.6 mph N/A   Mostly Cloudy
1:58 PM 70.3 °F - 63.3 °F 78% 29.90 in 10.0 mi NNW 18.4 mph - N/A   Mostly Cloudy
2:08 PM 71.6 °F - 62.6 °F 73% 29.88 in 10.0 mi NNW 19.6 mph - N/A   Scattered Clouds
2:58 PM 72.0 °F - 62.6 °F 72% 29.88 in 10.0 mi NW 10.4 mph - N/A   Partly Cloudy
3:58 PM 71.2 °F - 64.0 °F 78% 29.86 in 10.0 mi West 4.6 mph - N/A   Scattered Clouds
4:58 PM 70.7 °F - 61.7 °F 73% 29.86 in 10.0 mi WNW 10.4 mph - N/A   Scattered Clouds
5:58 PM 69.8 °F - 62.2 °F 77% 29.88 in 10.0 mi NW 10.4 mph - N/A   Mostly Cloudy
6:58 PM 68.7 °F - 61.7 °F 78% 29.91 in 10.0 mi WNW 10.4 mph - N/A   Scattered Clouds
7:58 PM 68.5 °F - 61.3 °F 78% 29.96 in 10.0 mi WNW 13.8 mph - N/A   Mostly Cloudy
8:58 PM 68.2 °F - 61.3 °F 79% 29.98 in 10.0 mi NW 11.5 mph - N/A   Mostly Cloudy
9:58 PM 68.4 °F - 60.8 °F 77% 29.98 in 10.0 mi North 10.4 mph - N/A   Partly Cloudy
10:58 PM 68.5 °F - 59.4 °F 72% 29.98 in 10.0 mi NNW 11.5 mph - N/A   Clear
11:58 PM 68.5 °F - 57.7 °F 68% 29.99 in 10.0 mi NNW 12.7 mph - N/A   Clear